Tracking 32139 objects as of 16-Nov-2025
HD Live streaming from Space Station
objects crossing your sky now

STARLINK-34988

Track STARLINK-34988 now!
10-day predictions
STARLINK-34988 is classified as:


NORAD ID: 65453
Int'l Code: 2025-194V
Perigee: 570.4 km
Apogee: 574.7 km
Inclination: 97.6 °
Period: 96.0 minutes
Semi major axis: 6943 km
RCS: Unknown
Launch date: September 3, 2025
Source: United States (US)
Launch site: AIR FORCE WESTERN TEST RANGE (AFWTR)
Your satellite tracking list
Your tracking list is empty




NASA's NSSDC Master Catalog

Two Line Element Set (TLE):
1 65453U 25194V   25319.80101456  .00007933  00000-0  63432-3 0  9992
2 65453  97.6024 174.0691 0003092  71.3141 288.8419 15.00474031 12639
Source of the keplerian elements: AFSPC